Weather History for Henderson, NV

Change the Weather History Date:

Tuesday, September 3, 2013

  Actual Average (KLAS) Record (KLAS)
Temperature  
Mean Temperature 84 °F 87 °F  
Max Temperature 95 °F 99 °F 108 °F (1950)
Min Temperature 74 °F 76 °F 55 °F (1946)
Degree Days  
Heating Degree Days 0 0  
Month to date heating degree days 0  
Since 1 July heating degree days 0  
Cooling Degree Days 20 22  
Month to date cooling degree days 67  
Year to date cooling degree days 2916  
Growing Degree Days 34 (Base 50)    
Moisture  
Dew Point 60 °F    
Average Humidity 44    
Maximum Humidity 69    
Minimum Humidity 26    
Precipitation  
Precipitation 0.25 in 0.01 in 0.57 in (1997)
Month to date precipitation 0.03  
Year to date precipitation 2.84  
Snow  
Snow 0.00 in 0.00 in 0.00 in ()
Month to date snowfall 0.0  
Since 1 July snowfall 0.0  
Since 1 September snowfall 0.0  
Snow Depth -    
Sea Level Pressure  
Sea Level Pressure 29.90 in    
Wind  
Wind Speed 8 mph (ENE)    
Max Wind Speed 17 mph    
Max Gust Speed 24 mph    
Visibility 10 miles    
Events Thunderstorm    
T = Trace of Precipitation, MM = Missing Value Source: NWS Daily Summary

Daily Weather History Graph

Daily Weather History Graph

Search for Another Location

Airport:

Trip Planner

Search our weather history database for the weather conditions in past years. The results will help you decide how hot, cold, wet, or windy it might be!

Date:

Astronomy

Sep. 03, 2013 Rise Set
Actual Time 6:14 AM PDT 7:04 PM PDT
Civil Twilight 5:48 AM PDT 7:30 PM PDT
Nautical Twilight 5:17 AM PDT 8:01 PM PDT
Astronomical Twilight 4:45 AM PDT 8:33 PM PDT
Moon 4:33 AM PDT (9/3) 5:53 PM PDT (9/3)
Length of Visible Light 13h 42m
Length of Day
12h 50m
Waning Crescent, 3% of the Moon is Illuminated
Sep 3
Waning Crescent
Sep 5
New
Sep 12
First Quarter
Sep 19
Full
Sep 26
Last Quarter

Hourly Weather History & Observations

Time (PDT) Temp. Heat Index Dew Point Humidity Pressure Visibility Wind Dir Wind Speed Gust Speed Precip Events Conditions
12:56 AM 83.8 °F 84.3 °F 61.9 °F 47% 29.86 in 10.0 mi SSE 6.9 mph - N/A   Mostly Cloudy
1:36 AM 84.2 °F 83.5 °F 57.2 °F 40% 29.94 in 10.0 mi SE 17.3 mph 24.2 mph N/A Thunderstorm Partly Cloudy
1:56 AM 82.9 °F 82.8 °F 59.0 °F 44% 29.86 in 10.0 mi SSE 16.1 mph 23.0 mph N/A   Clear
2:56 AM 81.9 °F 82.2 °F 59.9 °F 47% 29.88 in 10.0 mi WSW 8.1 mph - N/A   Overcast
3:56 AM 79.0 °F - 63.0 °F 58% 29.88 in 10.0 mi NE 8.1 mph - N/A   Clear
4:56 AM 75.9 °F - 63.9 °F 66% 29.90 in 10.0 mi NNE 4.6 mph - N/A   Clear
5:56 AM 75.9 °F - 63.0 °F 64% 29.94 in 10.0 mi NE 8.1 mph - N/A   Clear
6:56 AM 74.8 °F - 63.9 °F 69% 29.98 in 10.0 mi NE 4.6 mph - N/A   Clear
7:56 AM 77.9 °F - 63.0 °F 60% 29.99 in 10.0 mi NNE 6.9 mph - N/A   Clear
8:56 AM 79.9 °F - 63.9 °F 58% 29.99 in 10.0 mi NNE 9.2 mph - N/A   Clear
9:56 AM 81.0 °F 82.2 °F 63.0 °F 54% - - NNE 11.5 mph - N/A   Unknown
10:56 AM 83.8 °F 84.1 °F 61.0 °F 46% - - NE 6.9 mph - N/A   Unknown
11:56 AM 86.9 °F 87.0 °F 61.0 °F 42% - - Variable 6.9 mph - N/A   Unknown
12:56 PM 90.9 °F 90.9 °F 61.0 °F 37% 29.94 in - NE 8.1 mph - 0.25 in   Unknown
1:56 PM 91.9 °F 91.5 °F 59.9 °F 34% 29.92 in 10.0 mi NE 5.8 mph - N/A   Clear
2:56 PM 93.9 °F 93.6 °F 59.9 °F 32% 29.89 in 10.0 mi Calm Calm - N/A   Clear
3:56 PM 95.9 °F 95.3 °F 59.0 °F 29% 29.86 in 10.0 mi ENE 9.2 mph - N/A   Clear
4:56 PM 95.9 °F 94.9 °F 57.9 °F 28% 29.85 in 10.0 mi NE 9.2 mph - N/A   Clear
5:56 PM 95.9 °F 94.2 °F 55.9 °F 26% 29.84 in 10.0 mi NE 9.2 mph - N/A   Clear
6:56 PM 92.8 °F 90.6 °F 54.0 °F 27% 29.85 in 10.0 mi NE 8.1 mph - N/A   Clear
7:56 PM 90.9 °F - 52.9 °F 27% 29.86 in 10.0 mi Calm Calm - N/A   Clear
8:56 PM 88.9 °F 87.3 °F 55.9 °F 33% 29.88 in 10.0 mi Calm Calm - N/A   Clear
9:56 PM 86.0 °F 85.7 °F 59.9 °F 41% 29.90 in 10.0 mi Calm Calm - N/A   Clear
10:56 PM 84.9 °F 84.4 °F 59.0 °F 41% 29.90 in 10.0 mi SSE 4.6 mph - N/A   Clear
11:56 PM 81.9 °F 82.2 °F 59.9 °F 47% 29.91 in 10.0 mi South 6.9 mph - N/A   Clear